Erie, PA

9:33 PM EST on December 14, 2019 (GMT -0500)
Erie International

Weather History for KERI - October, 2019

Change the Weather History Date:

Friday, October 11, 2019

  Actual Average Record
Temperature  
Mean Temperature 66 °F 54 °F  
Max Temperature 78 °F 62 °F 84 °F (1949)
Min Temperature 55 °F 47 °F 32 °F (1956)
Degree Days  
Heating Degree Days 0 11  
Month to date heating degree days 50 103  
Since 1 July heating degree days 62 227  
Cooling Degree Days 2 0  
Month to date cooling degree days 22 7  
Year to date cooling degree days 847 636  
Growing Degree Days 16 (Base 50)    
Moisture  
Dew Point 44 °F    
Average Humidity 49    
Maximum Humidity 72    
Minimum Humidity 27    
Precipitation  
Precipitation T in 0.14 in 1.15 in (2006)
Month to date precipitation 0.57 1.59  
Year to date precipitation 30.20 32.03  
Snow  
Snow 0.00 in 0.00 in - ()
Month to date snowfall 0.0 0.0  
Since 1 July snowfall 0.0 0.0  
Since 1 September snowfall 0.0 0.0  
Snow Depth 0.00 in    
Sea Level Pressure  
Sea Level Pressure 30.08 in    
Wind  
Wind Speed 10 mph ()    
Max Wind Speed 21 mph    
Max Gust Speed 28 mph    
Visibility 10.0 miles    
Events Rain    
T = Trace of Precipitation, MM = Missing Value Source: Averaged Metar Reports

Daily Weather History Graph

Daily Weather History Graph

Search for Another Location

Airport or City:

Astronomy

Oct. 11, 2019 Rise Set
Actual Time 7:28 AM EDT 6:45 PM EDT
Civil Twilight 7:00 AM EDT 7:13 PM EDT
Nautical Twilight 6:28 AM EDT 7:46 PM EDT
Astronomical Twilight 5:55 AM EDT 8:18 PM EDT
Moon 6:17 PM EDT (10/11) 5:03 AM EDT (10/11)
Length of Visible Light 12h 13m
Length of Day
11h 17m
Waxing Gibbous, 96% of the Moon is Illuminated
Oct 11
Waxing Gibbous
Oct 13
Full
Oct 21
Last Quarter
Oct 27
New
Nov 4
First Quarter

Hourly Weather History & Observations

Time (EDT) Temp. Dew Point Humidity Pressure Visibility Wind Dir Wind Speed Gust Speed Precip Events Conditions
12:51 AM 57.9 °F 45.0 °F 62% 30.17 in 10.0 mi SSE 10.4 mph - N/A   Clear
1:51 AM 57.0 °F 46.0 °F 67% 30.17 in 10.0 mi SSE 9.2 mph - N/A   Clear
2:51 AM 57.0 °F 46.9 °F 69% 30.17 in 10.0 mi SSE 11.5 mph - N/A   Clear
3:51 AM 55.9 °F 46.9 °F 72% 30.16 in 10.0 mi SSE 10.4 mph - N/A   Clear
4:51 AM 55.9 °F 46.9 °F 72% 30.15 in 10.0 mi SSE 11.5 mph - N/A   Clear
5:51 AM 55.9 °F 46.9 °F 72% 30.16 in 10.0 mi SSE 11.5 mph - N/A   Clear
6:51 AM 55.9 °F 46.9 °F 72% 30.16 in 10.0 mi SSE 10.4 mph - N/A   Clear
7:51 AM 57.0 °F 46.9 °F 69% 30.17 in 10.0 mi SSE 13.8 mph - N/A   Clear
8:51 AM 60.1 °F 48.0 °F 64% 30.16 in 10.0 mi SSE 15.0 mph - N/A   Clear
9:51 AM 63.0 °F 50.0 °F 63% 30.16 in 10.0 mi SSE 11.5 mph - N/A   Clear
10:51 AM 68.0 °F 50.0 °F 52% 30.14 in 10.0 mi SE 12.7 mph - N/A   Clear
11:51 AM 72.0 °F 46.9 °F 41% 30.13 in 10.0 mi South 13.8 mph - N/A   Clear
12:51 PM 73.9 °F 46.9 °F 38% 30.11 in 10.0 mi SE 11.5 mph - N/A   Clear
1:51 PM 75.9 °F 44.1 °F 32% 30.08 in 10.0 mi SSE 15.0 mph 20.7 mph N/A   Clear
2:51 PM 77.0 °F 45.0 °F 32% 30.04 in 10.0 mi ESE 11.5 mph - N/A   Clear
3:51 PM 77.0 °F 44.1 °F 31% 30.02 in 10.0 mi SSE 9.2 mph - N/A   Clear
4:51 PM 75.9 °F 44.1 °F 32% 30.01 in 10.0 mi SSE 10.4 mph - N/A   Clear
5:51 PM 73.0 °F 43.0 °F 34% 30.00 in 10.0 mi SE 9.2 mph - N/A   Clear
6:51 PM 68.0 °F 42.1 °F 39% 30.00 in 10.0 mi ESE 6.9 mph - N/A   Clear
7:51 PM 68.0 °F 39.9 °F 36% 29.98 in 10.0 mi SSE 12.7 mph - N/A   Clear
8:51 PM 68.0 °F 34.0 °F 28% 29.96 in 10.0 mi SSE 15.0 mph 26.5 mph 0.00 in Rain Light Rain
9:51 PM 68.0 °F 33.1 °F 27% 29.95 in 10.0 mi SSE 15.0 mph 25.3 mph 0.00 in Rain Light Rain
10:51 PM 66.9 °F 35.1 °F 31% 29.93 in 10.0 mi SSE 13.8 mph 23.0 mph 0.00 in Rain Light Rain
11:51 PM 66.9 °F 35.1 °F 31% 29.90 in 10.0 mi SSE 17.3 mph - 0.00 in Rain Light Rain